Mobile, AL

6:28 AM CDT on July 25, 2017 (GMT -0500)
Mobile Regional

Weather History for KMOB - May, 2012

Change the Weather History Date:

Sunday, May 13, 2012

  Actual Average Record
Temperature  
Mean Temperature 75 °F 74 °F  
Max Temperature 85 °F 84 °F 93 °F (1962)
Min Temperature 65 °F 63 °F 43 °F (1960)
Cooling Degree Days 10 9  
Month to date cooling degree days 128 93  
Year to date cooling degree days 471 252  
Growing Degree Days 25 (Base 50)    
Moisture  
Dew Point 65 °F    
Average Humidity 71    
Maximum Humidity 93    
Minimum Humidity 48    
Precipitation  
Precipitation T in 0.17 in 3.09 in (1990)
Month to date precipitation 7.68 2.08  
Year to date precipitation 26.37 23.78  
Sea Level Pressure  
Sea Level Pressure 30.02 in    
Wind  
Wind Speed 6 mph (WSW)    
Max Wind Speed 13 mph    
Max Gust Speed 17 mph    
Visibility 10 miles    
Events      
T = Trace of Precipitation, MM = Missing Value Source: NWS Daily Summary

Daily Weather History Graph

Daily Weather History Graph

Search for Another Location

Airport or City:

Trip Planner

Search our weather history database for the weather conditions in past years. The results will help you decide how hot, cold, wet, or windy it might be!

Date:

Astronomy

May. 13, 2012 Rise Set
Actual Time 5:59 AM CDT 7:39 PM CDT
Civil Twilight 5:32 AM CDT 8:06 PM CDT
Nautical Twilight 5:01 AM CDT 8:37 PM CDT
Astronomical Twilight 4:28 AM CDT 9:11 PM CDT
Moon 1:36 AM CDT (5/13) 1:26 PM CDT (5/13)
Length of Visible Light 14h 33m
Length of Day
13h 40m
Last Quarter, 42% of the Moon is Illuminated
May 13
Last Quarter
May 20
New
May 28
First Quarter
Jun 4
Full
Jun 11
Last Quarter

Hourly Weather History & Observations

Time (CDT) Temp. Heat Index Dew Point Humidity Pressure Visibility Wind Dir Wind Speed Gust Speed Precip Events Conditions
12:03 AM 69.8 °F - 66.2 °F 88% 30.07 in 10.0 mi East 3.5 mph - N/A   Mostly Cloudy
12:18 AM 71.6 °F - 68.0 °F 88% 30.07 in 10.0 mi East 3.5 mph - N/A   Overcast
12:50 AM 71.6 °F - 68.0 °F 88% 30.06 in 8.0 mi ESE 5.8 mph - N/A   Scattered Clouds
12:56 AM 71.1 °F - 68.0 °F 90% 30.06 in 8.0 mi ESE 6.9 mph - N/A   Scattered Clouds
1:56 AM 71.1 °F - 69.1 °F 93% 30.04 in 8.0 mi WSW 6.9 mph - 0.00 in   Overcast
2:56 AM 70.0 °F - 66.9 °F 90% 30.02 in 9.0 mi Calm Calm - N/A   Scattered Clouds
3:56 AM 68.0 °F - 66.0 °F 93% 30.02 in 10.0 mi SW 3.5 mph - N/A   Mostly Cloudy
4:56 AM 68.0 °F - 64.0 °F 87% 30.03 in 10.0 mi WSW 5.8 mph - N/A   Scattered Clouds
5:56 AM 68.0 °F - 64.0 °F 87% 30.04 in 8.0 mi Calm Calm - N/A   Mostly Cloudy
6:56 AM 68.0 °F - 64.9 °F 90% 30.05 in 10.0 mi Calm Calm - N/A   Mostly Cloudy
7:56 AM 72.0 °F - 66.0 °F 81% 30.05 in 10.0 mi SSW 4.6 mph - N/A   Mostly Cloudy
8:56 AM 75.0 °F - 66.9 °F 76% 30.06 in 10.0 mi SW 9.2 mph - N/A   Scattered Clouds
9:56 AM 75.9 °F - 64.9 °F 69% 30.06 in 10.0 mi SW 10.4 mph - N/A   Mostly Cloudy
10:56 AM 78.1 °F - 66.0 °F 66% 30.05 in 10.0 mi SSW 6.9 mph - N/A   Mostly Cloudy
11:03 AM 78.8 °F - 64.4 °F 61% 30.06 in 10.0 mi WSW 5.8 mph - N/A   Mostly Cloudy
11:20 AM 78.8 °F - 64.4 °F 61% 30.05 in 10.0 mi WSW 9.2 mph - N/A   Mostly Cloudy
11:56 AM 81.0 °F 83.0 °F 66.0 °F 60% 30.04 in 10.0 mi Variable 5.8 mph - N/A   Mostly Cloudy
12:56 PM 82.0 °F 83.8 °F 64.9 °F 56% 30.02 in 10.0 mi SW 9.2 mph - N/A   Mostly Cloudy
1:56 PM 80.1 °F 81.9 °F 64.9 °F 60% 30.01 in 10.0 mi West 5.8 mph - N/A   Mostly Cloudy
2:56 PM 84.0 °F 84.9 °F 63.0 °F 49% 29.98 in 10.0 mi West 10.4 mph - N/A   Mostly Cloudy
3:56 PM 82.9 °F 83.7 °F 62.1 °F 49% 29.96 in 10.0 mi West 10.4 mph - N/A   Scattered Clouds
4:56 PM 84.0 °F 84.5 °F 62.1 °F 47% 29.96 in 10.0 mi West 6.9 mph - N/A   Mostly Cloudy
5:56 PM 80.6 °F 81.5 °F 60.8 °F 51% 29.96 in 10.0 mi West 9.2 mph - N/A   Scattered Clouds
6:56 PM 79.0 °F - 60.1 °F 52% 29.96 in 10.0 mi West 5.8 mph - N/A   Scattered Clouds
7:56 PM 75.0 °F - 60.1 °F 60% 29.98 in 10.0 mi West 3.5 mph - N/A   Scattered Clouds
8:56 PM 72.0 °F - 61.0 °F 68% 30.00 in 10.0 mi West 3.5 mph - N/A   Partly Cloudy
9:56 PM 71.1 °F - 62.1 °F 73% 30.02 in 10.0 mi WSW 4.6 mph - N/A   Scattered Clouds
11:56 PM 68.0 °F - 63.0 °F 84% 30.01 in 10.0 mi West 4.6 mph - N/A   Scattered Clouds